Regional Weather Roundup
Issued by NWS

Home | Current Version | Previous Version | Text Only | Print | Product List | Glossary Off
Versions: 1 2 3 4 5 6 7 8 9 10 11 12 13 14 15 16 17 18 19 20 21 22 23 24 25 26 27 28 29 30 31 32 33 34 35 36 37 38 39 40 41 42 43 44 45 46 47 48

000
ASUS45 KBOU 270907
RWRCO

WEATHER ROUNDUP FOR COLORADO
NATIONAL WEATHER SERVICE DENVER/BOULDER CO
200 AM MST SAT DEC 27 2014

NOTE: "FAIR" INDICATES FEW OR NO CLOUDS BELOW 12000 FEET WITH NO
SIGNIFICANT WEATHER AND/OR OBSTRUCTIONS TO VISIBILITY.

COZ001>005-013-030-031-271000-
...NORTHWEST COLORADO...

CITY           SKY/WX    TMP DP  RH WIND       PRES   REMARKS
CRAIG          LGT SNOW   4   1  88 CALM      30.14R FOG
HAYDEN         CLOUDY     9   5  85 CALM      30.10R
MEEKER         CLOUDY    10   5  80 CALM      30.12R
MOUNT WERNER   NOT AVBL
STEAMBOAT SPGS CLOUDY    10   6  87 CALM      30.08R
WALDEN         MOCLDY    -6  -9  84 SE5       30.00R WCI -17
$$

COZ006>008-011-271000-
...WEST CENTRAL VALLEYS...

CITY           SKY/WX    TMP DP  RH WIND       PRES   REMARKS
GRAND JUNCTION CLEAR      8   4  83 CALM      30.17R
MONTROSE       PTCLDY    16  14  92 CALM      30.15R
EAGLE          CLOUDY     9   5  85 E8        30.11R WCI  -4
RIFLE          CLOUDY    12   5  73 SE3       30.16R
DELTA          CLOUDY    23  15  71 SW5       30.15R WCI  17
NUCLA          NOT AVBL
$$

COZ017>023-064>068-271000-
...SOUTHWEST COLORADO...

CITY           SKY/WX    TMP DP  RH WIND       PRES   REMARKS
DURANGO        CLOUDY     9   6  88 CALM      30.03R
CORTEZ         CLEAR      8   4  83 NE8       30.08R WCI  -4
PAGOSA SPRINGS MOCLDY     7   5  92 CALM      30.00R
TELLURIDE      LGT SNOW N/A N/A N/A E6        29.99R
WOLF CREEK PAS CLOUDY     0  -4  85 MISG      29.84R
$$

COZ009-010-012-014-032>034-037-058>063-271000-
...CENTRAL COLORADO...

CITY           SKY/WX    TMP DP  RH WIND       PRES   REMARKS
ASPEN          CLOUDY     6   1  80 SW6       30.02R WCI  -4
BUENA VISTA    CLOUDY     3  -2  79 W6        30.00R WCI  -8
COPPER MTN     LGT SNOW   0  -8  71 W16       29.81R WCI -21
BERTHOUD PASS  MOCLDY    -8 -13  77 MISG      29.77R
COTTONWOOD PAS CLOUDY     5   0  78 W5        29.89R WCI  -4
GUNNISON       MOCLDY    -2 -18  46 CALM      30.04R
KREMMLING      LGT SNOW   7   1  78 CALM      30.05R
LEADVILLE      CLEAR     -6 -12  75 NE10      29.89R WCI -24
MONARCH PASS   CLOUDY     0  -6  78 MISG      29.91R
SALIDA         CLOUDY     9   5  86 CALM      30.10R
SUNLIGHT       LGT SNOW N/A N/A N/A CALM      29.91R
WILKERSON PASS PTCLDY   N/A N/A N/A NW10G16   29.84R
$$

COZ069>075-271000-
...SAN LUIS VALLEY/SANGRE DE CRISTO MOUNTAINS...

CITY           SKY/WX    TMP DP  RH WIND       PRES   REMARKS
ALAMOSA        PTCLDY     1  -3  83 CALM      29.99R
LA VETA PASS   NOT AVBL
SAGUACHE       MOCLDY    -4  -9  77 NW10      30.00R WCI -21
$$

COZ035-036-038>040-271000-
...NORTHERN COLORADO FRONT RANGE...

CITY           SKY/WX    TMP DP  RH WIND       PRES   REMARKS
DENVER INTL AP PTCLDY     7   4  87 SW9       30.08S WCI  -7
DMNS CITY PARK   N/A     11   8  91 S2        30.10S
AURORA         CLEAR      5   2  89 S8        30.08S WCI  -8
FRONT RANGE AP NOT AVBL
ERIE MUNI ARPT   N/A      2  -1  87 S3        30.11S
BOULDER MUN AP PTCLDY    10   9  92 CALM      30.09S
CENTENNIAL     PTCLDY     3   2  95 S6        30.06R WCI  -8
BROOMFIELD     PTCLDY     9   5  85 W5        30.08R WCI   0
FORT COLLINS   PTCLDY    10   7  85 S6        30.12R WCI   1
LONGMONT       PTCLDY     3  -1  82 W5        30.14R WCI  -7
$$

COZ041-046-047-076>085-087-088-271000-
...PIKES PEAK/PALMER DIVIDE AND SOUTHERN FOOTHILLS...

CITY           SKY/WX    TMP DP  RH WIND       PRES   REMARKS
COLO. SPRINGS  LGT SNOW  13  10  88 CALM      30.05S
A. F. ACADEMY  PTCLDY     2  -4  78 N9        30.02S WCI -13
ELLICOTT       NOT AVBL
FALCON         PTCLDY     5   1  84 NW5       30.01S WCI  -4
FORT CARSON    FLURRIES  13  10  90 S6        30.05S WCI   4
LIMON          PTCLDY     3   0  87 W13       30.07S WCI -14
MONUMENT HILL  PTCLDY     0  -4  85 W7        29.98F WCI -13
TRINIDAD       CLOUDY    15  12  88 CALM      30.07R
$$

COZ042>045-048>051-090-091-271000-
...NORTHEAST COLORADO...

CITY           SKY/WX    TMP DP  RH WIND       PRES   REMARKS
GREELEY ARPT   PTCLDY     7   1  78 SW5       30.12R WCI  -2
AKRON          PTCLDY     7   6  96 W15       30.09F WCI -10
BURLINGTON     PTCLDY     4   0  83 NW14      30.12R WCI -14
WRAY           CLEAR      5   2  89 SW7       30.15R WCI  -7
STERLING       CLEAR      9   7  92 W10       30.13S WCI  -6
HOLYOKE        CLEAR     10   7  85 W10       30.14S WCI  -3
FORT MORGAN    CLEAR      7   4  88 W9        30.12S WCI  -7
$$

COZ086-089-092>099-271000-
...SOUTHEAST COLORADO...

CITY           SKY/WX    TMP DP  RH WIND       PRES   REMARKS
PUEBLO         CLOUDY    18  14  84 CALM      30.13R
LA JUNTA       CLEAR     10   6  84 W8        30.15R WCI  -2
LAMAR          CLEAR     10   6  84 W7        30.16R WCI  -1
SPRINGFIELD      N/A      9   6  88 NW10      30.13R WCI  -5
$$


USA.gov is the U.S. government's official web portal to all federal, state and local government web resources and services.